[[{"header":{"parameterUnit":"m.s-1","parameterCategory":1,"la1":30.2991,"la2":30.254,"lo1":-89.0895,"lo2":-89.0444,"dy":0.0017,"dx":0.0017,"nx":28,"ny":28,"refTime":"2024-06-01T03:00:00:Z","depth":0,"parameterNumber":2,"parameterNumberName":"U-component_of_WINDS"},"data":[0,0,0,0,0,0,0,0,0,0,0,0,0,0,0,0,0,0,0,0,0,0,0,0,0,0,0,0,0,0,0,0,0,0,0,0,0,0,0,0,0,0,0,0,0,0,0,0,0,0,0,0,0,0,0,0,0,0,2.0721,2.0718,0,2.0382,2.0378,2.0374,2.0137,2.0135,2.0133,2.0132,1.9776,1.9769,1.9761,0,0,0,0,0,0,0,0,0,0,0,0,0,2.1159,2.1153,2.0722,2.0717,2.0713,2.0382,2.0377,2.0373,2.0137,2.0135,2.0133,2.0131,1.9779,1.977,1.976,0,0,0,0,0,0,0,0,0,0,0,0,0,2.091,2.1151,2.0722,2.0556,2.0538,2.0383,2.0377,2.0372,2.0138,2.0135,2.0132,2.013,1.9782,1.9771,1.9759,1.9741,0,0,1.9723,1.9718,0,0,0,0,0,0,0,0,2.0924,2.0894,2.0585,2.0567,2.0546,2.0299,2.0401,2.016,2.0138,2.0289,2.0132,2.0129,1.9952,1.9926,1.9868,1.9724,1.9709,1.9722,1.9715,1.971,1.9707,0,0,0,0,0,0,0,2.0942,2.0907,2.0587,2.058,2.0557,2.0496,2.0457,2.0354,2.014,2.0276,2.0258,2.0222,1.9941,1.988,1.9858,1.9703,1.9723,1.9712,1.9705,1.97,1.9525,1.9527,0,0,0,0,0,0,2.0986,2.0923,2.0597,2.0576,2.0733,2.049,2.0447,2.0381,2.014,2.0101,2.0224,2.0212,1.9901,1.9872,1.9845,1.9805,1.971,1.9699,1.9693,1.9522,1.9525,1.9528,0,0,0,0,0,0,2.0996,2.0959,2.0611,2.0745,2.0696,2.0486,2.0413,2.0376,2.0314,2.0101,2.0061,2.0202,1.9898,1.9861,1.9768,1.9789,1.9694,1.9683,1.952,1.9523,1.9527,1.9728,0,0,0,0,0,0,2.101,2.0965,2.0957,2.0746,2.069,2.0544,2.0415,2.0371,2.0296,2.0276,2.0069,2.0032,1.9893,1.9787,1.9757,1.9772,1.9674,1.9517,1.9521,1.9525,1.9718,1.9738,1.9755,0,0,0,0,0,2.1027,2.1026,2.0958,2.092,2.0676,2.0545,2.0512,2.0354,2.0299,2.0288,2.0151,2.0039,1.9793,1.978,1.9743,1.9755,1.9515,1.952,1.9525,1.971,1.9734,1.9754,0,0,0,0,0,0,2.1241,2.0995,2.0917,2.0849,2.072,2.0506,2.0487,2.0385,2.0267,2.0253,2.006,2.0015,1.9942,1.9839,1.9828,1.9724,1.964,1.9638,1.9793,1.9814,1.9832,1.9857,1.9664,0,0,0,0,0,2.1282,2.1198,2.0986,2.0947,2.0886,2.0699,2.0636,2.0526,2.0383,2.0327,2.0182,2.0047,1.9938,1.9871,1.9759,1.9704,1.9653,1.9694,1.9712,1.9728,1.9728,1.9688,1.9703,1.9545,1.9545,1.9545,0,0,2.1362,2.1217,2.1176,2.0986,2.0873,2.0789,2.0654,2.0571,2.0505,2.0313,2.0216,2.0107,1.9942,1.9868,1.9828,1.978,1.9761,1.9735,1.9749,1.9739,1.9695,1.9711,1.9724,1.9549,1.9548,1.9548,0,0,2.1465,2.1349,2.1302,2.1193,2.1025,2.09,2.089,2.0691,2.0611,2.0512,2.0366,2.0284,2.0103,1.9991,1.991,1.9974,1.9865,1.9943,2.0036,2.0,2.0012,2.0022,2.0042,2.0052,1.9944,1.9944,1.9944,0,2.1585,2.1455,2.129,2.1215,2.1135,2.0961,2.0911,2.0812,2.0616,2.0563,2.0513,2.0281,2.0158,2.0054,2.007,2.0012,1.9991,1.9964,2.0025,2.0033,2.0039,2.0056,2.0065,1.9954,1.9953,1.9952,1.9951,0,2.161,2.1522,2.1504,2.1321,2.1239,2.1178,2.1001,2.0938,2.0836,2.0716,2.0617,2.0464,2.0318,2.0285,2.0183,2.0166,2.0142,2.0062,1.9973,2.0068,2.008,2.0085,1.9969,1.9966,1.9963,1.996,0,0,2.1835,2.1565,2.1561,2.1476,2.1279,2.1206,2.1136,2.0995,2.0944,2.0815,2.0749,2.06,2.0524,2.0433,2.0317,2.0287,2.0344,2.0208,2.0201,2.0237,2.0313,2.0373,2.0383,2.0272,2.0273,2.0273,2.0325,0,2.1906,2.1773,2.1624,2.1541,2.1456,2.129,2.1228,2.11,2.0987,2.0896,2.0769,2.0666,2.0576,2.0519,2.0482,2.0345,2.0356,2.0339,2.0205,2.0203,2.0249,2.039,2.0452,2.0509,2.033,2.033,2.0331,0,2.197,2.1852,2.1762,2.1573,2.1531,2.1479,2.1338,2.1255,2.1105,2.1025,2.0925,2.0802,2.0717,2.0642,2.052,2.0513,2.0449,2.0374,2.0372,2.0351,2.0271,2.0369,2.0523,2.0531,2.0337,2.0337,2.0336,0,2.2141,2.1959,2.1881,2.1814,2.1592,2.1559,2.1464,2.1312,2.1237,2.1114,2.1063,2.0931,2.0858,2.0758,2.0601,2.0562,2.0496,2.0408,2.0423,2.0428,2.0414,2.0417,2.0558,2.038,2.038,2.0379,2.0379,0,2.2233,2.2184,2.1955,2.1907,2.1847,2.1675,2.1619,2.1509,2.1376,2.1301,2.115,2.1083,2.0882,2.0791,2.0668,2.0585,2.0553,2.0484,2.0451,2.0495,2.0504,2.0449,2.0439,2.0381,2.0381,2.0381,2.038,0,2.2412,2.2257,2.2161,2.196,2.1909,2.1873,2.1698,2.1644,2.1524,2.1432,2.14,2.121,2.1094,2.093,2.0763,2.0681,2.0614,2.0564,2.0666,2.0646,2.067,2.0669,2.0777,2.0782,2.0606,2.0608,2.061,0,2.2479,2.2438,2.2234,2.2175,2.2086,2.1993,2.1916,2.1747,2.1673,2.15,2.1466,2.134,2.1229,2.1052,2.0897,2.0769,2.0712,2.0759,2.0691,2.0737,2.0709,2.0712,2.0706,2.0774,2.0777,2.0779,2.0781,0,2.2615,2.2541,2.2439,2.231,2.2225,2.2114,2.1996,2.1956,2.176,2.1685,2.1567,2.1482,2.1313,2.1188,2.104,2.0938,2.0826,2.0805,2.0801,2.0844,2.0904,2.0869,2.0707,2.0802,2.08,2.0798,2.0797,2.0796,2.2737,2.2693,2.2542,2.2433,2.2328,2.2221,2.2161,2.2034,2.1934,2.1785,2.169,2.1577,2.1426,2.1215,2.112,2.1027,2.098,2.0976,2.0974,2.0975,2.0989,2.0923,2.0999,2.0998,2.0998,2.0997,2.0996,0,2.2862,2.2759,2.266,2.2502,2.2416,2.2323,2.2188,2.2121,2.2023,2.1895,2.179,2.1654,2.1533,2.137,2.1236,2.1192,2.1137,2.1163,2.1162,2.114,2.1039,2.1055,2.1209,2.1209,2.1209,2.1209,2.1209,2.1209,2.2917,2.2836,2.2745,2.261,2.2504,2.2394,2.2325,2.2225,2.2121,2.1977,2.1877,2.1773,2.1629,2.1484,2.1368,2.1323,2.1279,2.132,2.1259,2.1167,2.1148,2.1129,2.1142,2.1313,2.1313,2.1367,2.1367,2.1368]},{"header":{"parameterUnit":"m.s-1","parameterCategory":1,"la1":30.2991,"la2":30.254,"lo1":-89.0895,"lo2":-89.0444,"dy":0.0017,"dx":0.0017,"nx":28,"ny":28,"refTime":"2024-06-01T03:00:00:Z","depth":0,"parameterNumber":3,"parameterNumberName":"V-component_of_WINDS"},"data":[0,0,0,0,0,0,0,0,0,0,0,0,0,0,0,0,0,0,0,0,0,0,0,0,0,0,0,0,0,0,0,0,0,0,0,0,0,0,0,0,0,0,0,0,0,0,0,0,0,0,0,0,0,0,0,0,0,0,4.6729,4.6732,0,4.7004,4.7007,4.701,4.7089,4.7088,4.7086,4.7085,4.7356,4.7364,4.7373,0,0,0,0,0,0,0,0,0,0,0,0,0,4.626,4.6268,4.6728,4.6732,4.6735,4.7003,4.7007,4.7011,4.709,4.7088,4.7086,4.7084,4.7353,4.7363,4.7373,0,0,0,0,0,0,0,0,0,0,0,0,0,4.6492,4.6271,4.6728,4.6807,4.6817,4.7003,4.7007,4.7012,4.709,4.7088,4.7086,4.7084,4.735,4.7362,4.7375,4.7498,0,0,4.7414,4.742,0,0,0,0,0,0,0,0,4.6479,4.6509,4.6792,4.6802,4.6814,4.701,4.6942,4.7175,4.7091,4.6986,4.7085,4.7082,4.7242,4.7264,4.732,4.7511,4.7522,4.7415,4.7423,4.7429,4.7432,0,0,0,0,0,0,0,4.6463,4.6498,4.6837,4.6796,4.6809,4.6826,4.6856,4.6986,4.7122,4.6995,4.7001,4.7033,4.7247,4.7307,4.7327,4.7526,4.7415,4.7426,4.7434,4.7439,4.783,4.7833,0,0,0,0,0,0,4.6434,4.6484,4.6828,4.6845,4.6638,4.6836,4.687,4.6949,4.7121,4.7146,4.7035,4.7036,4.7286,4.7311,4.7336,4.7491,4.7429,4.7441,4.7448,4.7828,4.7831,4.7834,0,0,0,0,0,0,4.6424,4.6465,4.6817,4.6667,4.6713,4.6846,4.6934,4.6956,4.7016,4.7152,4.7175,4.7072,4.7285,4.7318,4.7458,4.7502,4.7446,4.7458,4.7824,4.7829,4.7832,4.7802,0,0,0,0,0,0,4.641,4.646,4.6511,4.6667,4.6721,4.6937,4.6937,4.6963,4.7039,4.7043,4.7193,4.7215,4.7286,4.7438,4.747,4.7518,4.7468,4.7821,4.7826,4.7831,4.7799,4.7804,4.7808,0,0,0,0,0,4.6393,4.6489,4.6513,4.6554,4.6787,4.694,4.697,4.7053,4.7042,4.7093,4.718,4.721,4.7492,4.7452,4.7489,4.7541,4.7819,4.7825,4.7831,4.7797,4.7803,4.7808,0,0,0,0,0,0,4.6331,4.6511,4.654,4.669,4.6799,4.6953,4.7019,4.7057,4.7168,4.7167,4.7262,4.7295,4.7427,4.7498,4.745,4.7668,4.7656,4.7669,4.7617,4.7624,4.7629,4.7608,4.7479,0,0,0,0,0,4.6336,4.6448,4.6598,4.6715,4.6769,4.6885,4.6954,4.7009,4.7124,4.717,4.7267,4.7375,4.7488,4.756,4.7671,4.781,4.7842,4.7864,4.7868,4.7872,4.7882,4.7959,4.797,4.7854,4.7853,4.7853,0,0,4.6344,4.6457,4.6521,4.6706,4.6797,4.6908,4.6923,4.7039,4.7121,4.7186,4.7325,4.74,4.7526,4.7666,4.7732,4.7729,4.7921,4.7879,4.7881,4.789,4.7966,4.7977,4.7986,4.7858,4.7857,4.7856,0,0,4.6417,4.6515,4.6623,4.6715,4.6854,4.693,4.6956,4.7105,4.7158,4.73,4.735,4.7447,4.764,4.7728,4.7798,4.7903,4.7935,4.7936,4.7959,4.8033,4.8042,4.8051,4.8087,4.8099,4.7946,4.7946,4.7946,0,4.641,4.6583,4.6673,4.6788,4.6867,4.6934,4.7043,4.7126,4.7293,4.7344,4.7339,4.7582,4.7672,4.7832,4.7858,4.7913,4.7943,4.792,4.8034,4.8044,4.8053,4.8088,4.8102,4.7946,4.7946,4.7946,4.7946,0,4.6565,4.6684,4.6754,4.6918,4.7004,4.7115,4.7219,4.7295,4.7342,4.7417,4.7558,4.7669,4.7803,4.7845,4.7891,4.8012,4.8006,4.8016,4.8005,4.8062,4.8097,4.8111,4.7945,4.7945,4.7945,4.7945,0,0,4.6606,4.6819,4.6843,4.6918,4.7077,4.7168,4.728,4.7416,4.7478,4.759,4.7685,4.7846,4.7858,4.7937,4.7993,4.8058,4.8132,4.8061,4.8065,4.8069,4.827,4.826,4.8275,4.8155,4.8158,4.816,4.8259,0,4.6698,4.6907,4.6991,4.7158,4.7267,4.7333,4.743,4.7536,4.7609,4.7709,4.7788,4.7901,4.7909,4.7957,4.8024,4.8109,4.8174,4.8103,4.824,4.8244,4.8206,4.8293,4.8284,4.8372,4.8273,4.8276,4.8278,0,4.6833,4.6951,4.7129,4.7274,4.7323,4.741,4.754,4.7637,4.7756,4.7805,4.7893,4.7946,4.8063,4.8044,4.8205,4.8155,4.8216,4.8266,4.8271,4.8286,4.8263,4.8309,4.8402,4.8415,4.83,4.8298,4.8297,0,4.6843,4.7045,4.7179,4.724,4.7413,4.7472,4.7546,4.7665,4.774,4.7852,4.7902,4.8025,4.8091,4.8184,4.8267,4.8246,4.8419,4.8408,4.8459,4.8457,4.8492,4.8488,4.8594,4.8533,4.8532,4.8532,4.8532,0,4.6937,4.7043,4.7186,4.7267,4.7387,4.7482,4.7597,4.7675,4.7779,4.7874,4.7937,4.8024,4.813,4.8229,4.8294,4.8416,4.8446,4.8485,4.8501,4.848,4.8474,4.852,4.8515,4.8536,4.8535,4.8534,4.8534,0,4.6968,4.7068,4.7217,4.737,4.741,4.7492,4.762,4.77,4.7776,4.7896,4.7929,4.8047,4.8168,4.8261,4.8416,4.8459,4.8588,4.8605,4.8549,4.8557,4.8602,4.8596,4.8741,4.8764,4.8687,4.8688,4.8688,0,4.702,4.7104,4.7266,4.7336,4.7411,4.7523,4.7601,4.7697,4.7775,4.7918,4.7979,4.8105,4.8211,4.8399,4.8497,4.8615,4.8635,4.8678,4.8653,4.8629,4.8634,4.8628,4.8636,4.868,4.8681,4.8681,4.8681,0,4.7102,4.7148,4.726,4.739,4.7483,4.7589,4.7695,4.7748,4.7862,4.7946,4.8072,4.8154,4.8315,4.8437,4.8566,4.8638,4.8678,4.8689,4.8707,4.8684,4.8648,4.8667,4.8556,4.8684,4.8684,4.8684,4.8684,4.8683,4.7145,4.7222,4.7349,4.7471,4.7562,4.7661,4.7743,4.7831,4.7939,4.808,4.8129,4.8258,4.8374,4.8552,4.8625,4.8725,4.8726,4.8752,4.8758,4.8763,4.876,4.8633,4.8748,4.8748,4.8748,4.8748,4.8748,0,4.7228,4.7314,4.7426,4.7575,4.7671,4.7704,4.7823,4.79,4.8014,4.8121,4.8225,4.8368,4.8488,4.8595,4.8719,4.8778,4.8799,4.8807,4.8803,4.8818,4.8753,4.8725,4.8788,4.8788,4.8788,4.8788,4.8788,4.8788,4.7283,4.7416,4.7476,4.7653,4.7737,4.7867,4.7932,4.8022,4.8108,4.8267,4.8368,4.8439,4.8545,4.8677,4.8787,4.8815,4.8857,4.886,4.8892,4.8828,4.8823,4.8818,4.8792,4.8868,4.8869,4.8949,4.895,4.8951]}]]